| time (UTC) | temp C | wind direction | speed KPH | gust KPH | rain 1hr cm | rain 24hr cm | rain mn cm | humidity % | barometer mb |
| 20260510103014 | 16 | 134 | 0.0 | 1.6 | 0.00 | 0.13 | 0.08 | 91 | 1011.0 |
| 20260510101512 | 16 | 134 | 0.0 | 0.0 | 0.00 | 0.13 | 0.08 | 91 | 1010.5 |
| 20260510100012 | 16 | 134 | 0.0 | 3.2 | 0.00 | 0.13 | 0.08 | 91 | 1010.9 |
| 20260510094511 | 16 | 126 | 0.0 | 4.8 | 0.00 | 0.13 | 0.08 | 91 | 1010.8 |
| 20260510093011 | 16 | 103 | 0.0 | 1.6 | 0.00 | 0.13 | 0.08 | 91 | 1011.0 |
| 20260510091512 | 16 | 99 | 0.0 | 3.2 | 0.00 | 0.13 | 0.08 | 90 | 1011.2 |
| 20260510090010 | 16 | 98 | 0.0 | 3.2 | 0.00 | 0.13 | 0.08 | 90 | 1010.7 |
| 20260510084509 | 16 | 82 | 0.0 | 4.8 | 0.00 | 0.13 | 0.08 | 90 | 1010.3 |
| 20260510083007 | 16 | 70 | 0.0 | 6.4 | 0.00 | 0.13 | 0.08 | 90 | 1011.2 |
| 20260510081510 | 16 | 143 | 0.0 | 4.8 | 0.00 | 0.13 | 0.08 | 90 | 1011.1 |
| 20260510080006 | 16 | 136 | 0.0 | 3.2 | 0.00 | 0.13 | 0.08 | 89 | 1012.0 |
| 20260510074507 | 16 | 135 | 0.0 | 4.8 | 0.00 | 0.13 | 0.08 | 89 | 1012.4 |
| 20260510073007 | 16 | 106 | 0.0 | 3.2 | 0.00 | 0.13 | 0.08 | 88 | 1011.7 |
| 20260510071504 | 16 | 103 | 0.0 | 9.7 | 0.00 | 0.13 | 0.08 | 88 | 1012.1 |
| 20260510070004 | 16 | 107 | 0.0 | 4.8 | 0.00 | 0.13 | 0.08 | 88 | 1012.2 |
| 20260510064502 | 17 | 90 | 0.0 | 4.8 | 0.00 | 0.13 | 0.08 | 87 | 1012.3 |
| 20260510063102 | 17 | 344 | 0.0 | 8.0 | 0.00 | 0.13 | 0.08 | 87 | 1012.9 |
| 20260510061558 | 17 | 81 | 0.0 | 3.2 | 0.03 | 0.13 | 0.08 | 87 | 1014.4 |
| 20260510060055 | 17 | 88 | 0.0 | 4.8 | 0.08 | 0.13 | 0.08 | 88 | 1014.6 |
| 20260510054553 | 17 | 113 | 0.0 | 1.6 | 0.10 | 0.13 | 0.08 | 88 | 1014.2 |
| 20260510053050 | 17 | 126 | 0.0 | 4.8 | 0.10 | 0.13 | 0.08 | 87 | 1011.8 |
| 20260510051550 | 18 | 143 | 1.6 | 12.9 | 0.08 | 0.10 | 0.05 | 85 | 1010.1 |
| 20260510050049 | 19 | 355 | 0.0 | 4.8 | 0.03 | 0.05 | 0.05 | 81 | 1013.6 |
| 20260510044549 | 20 | 19 | 1.6 | 9.7 | 0.00 | 0.03 | 0.03 | 78 | 1014.0 |
| 20260510043040 | 21 | 9 | 0.0 | 6.4 | 0.00 | 0.03 | 0.03 | 73 | 1012.9 |
| 20260510041542 | 22 | 299 | 1.6 | 14.5 | 0.00 | 0.03 | 0.03 | 69 | 1012.4 |
| 20260510040037 | 21 | 168 | 0.0 | 12.9 | 0.00 | 0.03 | 0.03 | 68 | 1009.2 |
| 20260510034537 | 21 | 165 | 6.4 | 19.3 | 0.00 | 0.03 | 0.03 | 70 | 1007.3 |
| 20260510033039 | 22 | 360 | 9.7 | 20.9 | 0.00 | 0.03 | 0.03 | 69 | 1007.0 |
| 20260510031537 | 22 | 360 | 9.7 | 22.5 | 0.00 | 0.03 | 0.03 | 72 | 1007.3 |
| 20260510030034 | 22 | 360 | 6.4 | 17.7 | 0.00 | 0.03 | 0.03 | 71 | 1007.9 |
| 20260510024534 | 24 | 360 | 6.4 | 12.9 | 0.00 | 0.03 | 0.03 | 64 | 1010.1 |
| 20260510023033 | 23 | 360 | 8.0 | 14.5 | 0.00 | 0.03 | 0.03 | 63 | 1009.2 |
| 20260510021537 | 24 | 360 | 8.0 | 19.3 | 0.00 | 0.03 | 0.03 | 62 | 1007.3 |
| 20260510020033 | 25 | 360 | 4.8 | 9.7 | 0.00 | 0.03 | 0.03 | 58 | 1008.3 |
| 20260510014533 | 25 | 360 | 0.0 | 0.0 | 0.00 | 0.03 | 0.03 | 56 | 1008.4 |
| 20260510013030 | 25 | 360 | 1.6 | 4.8 | 0.00 | 0.03 | 0.03 | 54 | 1007.7 |
| 20260510011531 | 25 | 360 | 1.6 | 6.4 | 0.00 | 0.03 | 0.03 | 53 | 1007.0 |
| 20260510010029 | 26 | 360 | 1.6 | 4.8 | 0.00 | 0.05 | 0.03 | 50 | 1007.1 |
| 20260510004529 | 26 | 360 | 1.6 | 4.8 | 0.00 | 0.05 | 0.03 | 50 | 1007.0 |
| 20260510003029 | 26 | 360 | 0.0 | 6.4 | 0.00 | 0.05 | 0.03 | 49 | 1007.0 |
| 20260510001528 | 27 | 360 | 3.2 | 9.7 | 0.00 | 0.05 | 0.03 | 46 | 1006.9 |
| 20260510000026 | 27 | 360 | 1.6 | 12.9 | 0.00 | 1.07 | 0.03 | 44 | 1007.1 |
| 20260509234533 | 27 | 150 | 1.6 | 8.0 | 0.00 | 1.07 | 0.03 | 44 | 1007.0 |
| 20260509233024 | 28 | 169 | 4.8 | 14.5 | 0.00 | 1.07 | 0.03 | 43 | 1007.3 |
| 20260509231521 | 28 | 160 | 4.8 | 12.9 | 0.00 | 1.07 | 0.03 | 43 | 1007.6 |
| 20260509230019 | 28 | 136 | 3.2 | 9.7 | 0.00 | 1.07 | 0.03 | 44 | 1007.9 |
| 20260509224518 | 28 | 150 | 0.0 | 12.9 | 0.00 | 1.07 | 0.03 | 43 | 1008.1 |
| 20260509223021 | 28 | 159 | 3.2 | 8.0 | 0.00 | 1.07 | 0.03 | 44 | 1008.2 |
| 20260509221520 | 28 | 140 | 4.8 | 12.9 | 0.00 | 1.07 | 0.03 | 42 | 1008.3 |
| 20260509220017 | 28 | 108 | 3.2 | 9.7 | 0.00 | 1.07 | 0.03 | 39 | 1008.2 |
| 20260509214516 | 28 | 132 | 0.0 | 8.0 | 0.00 | 1.07 | 0.03 | 42 | 1008.4 |
| 20260509213013 | 28 | 132 | 1.6 | 11.3 | 0.00 | 1.07 | 0.03 | 42 | 1008.4 |
| 20260509211513 | 28 | 135 | 1.6 | 14.5 | 0.00 | 1.07 | 0.03 | 47 | 1008.4 |
| 20260509210012 | 28 | 103 | 1.6 | 6.4 | 0.00 | 1.07 | 0.03 | 45 | 1008.5 |
| 20260509204509 | 28 | 96 | 1.6 | 6.4 | 0.00 | 1.07 | 0.03 | 44 | 1008.7 |
| 20260509203005 | 28 | 140 | 1.6 | 11.3 | 0.00 | 1.07 | 0.03 | 47 | 1009.1 |
| 20260509201501 | 28 | 105 | 1.6 | 6.4 | 0.00 | 1.07 | 0.03 | 47 | 1009.1 |
| 20260509200105 | 28 | 148 | 3.2 | 11.3 | 0.00 | 1.07 | 0.03 | 47 | 1009.2 |
| 20260509194600 | 28 | 148 | 1.6 | 6.4 | 0.00 | 1.07 | 0.03 | 48 | 1009.4 |
| 20260509193054 | 28 | 157 | 1.6 | 12.9 | 0.00 | 1.07 | 0.03 | 46 | 1009.6 |
| 20260509191601 | 27 | 81 | 1.6 | 4.8 | 0.00 | 1.07 | 0.03 | 46 | 1009.4 |
| 20260509190106 | 28 | 163 | 1.6 | 9.7 | 0.00 | 1.07 | 0.03 | 48 | 1009.8 |
| 20260509184552 | 27 | 146 | 1.6 | 6.4 | 0.00 | 1.07 | 0.03 | 49 | 1009.8 |
| 20260509183049 | 27 | 123 | 1.6 | 6.4 | 0.00 | 1.07 | 0.03 | 49 | 1010.1 |
| 20260509181548 | 27 | 144 | 3.2 | 6.4 | 0.00 | 1.07 | 0.03 | 51 | 1010.4 |
| 20260509180052 | 27 | 142 | 1.6 | 6.4 | 0.00 | 1.07 | 0.03 | 52 | 1010.6 |
| 20260509174546 | 27 | 153 | 1.6 | 9.7 | 0.00 | 1.07 | 0.03 | 56 | 1011.0 |
| 20260509173047 | 26 | 159 | 0.0 | 3.2 | 0.00 | 1.07 | 0.03 | 56 | 1011.2 |
| 20260509171546 | 26 | 158 | 0.0 | 8.0 | 0.00 | 1.07 | 0.03 | 60 | 1011.5 |
| 20260509170040 | 26 | 161 | 1.6 | 4.8 | 0.03 | 1.07 | 0.03 | 62 | 1011.4 |
| 20260509164547 | 25 | 154 | 0.0 | 11.3 | 0.03 | 1.07 | 0.03 | 66 | 1011.5 |
| 20260509163037 | 26 | 163 | 3.2 | 8.0 | 0.03 | 1.07 | 0.03 | 71 | 1011.5 |
| 20260509161535 | 25 | 162 | 0.0 | 4.8 | 0.03 | 1.07 | 0.03 | 74 | 1011.5 |
| 20260509160030 | 25 | 155 | 1.6 | 8.0 | 0.00 | 1.04 | 0.00 | 75 | 1011.7 |
| 20260509154525 | 25 | 167 | 0.0 | 8.0 | 0.00 | 1.04 | 0.00 | 76 | 1011.6 |
| 20260509153020 | 24 | 159 | 3.2 | 8.0 | 0.00 | 1.04 | 0.00 | 74 | 1011.7 |
| 20260509151518 | 23 | 154 | 3.2 | 8.0 | 0.00 | 1.04 | 0.00 | 75 | 1011.6 |
| 20260509150029 | 23 | 148 | 0.0 | 8.0 | 0.00 | 1.04 | 0.00 | 77 | 1011.5 |
| 20260509144511 | 22 | 157 | 1.6 | 4.8 | 0.00 | 1.04 | 0.00 | 79 | 1011.4 |
| 20260509143009 | 21 | 126 | 0.0 | 6.4 | 0.00 | 1.04 | 0.00 | 81 | 1011.4 |
| 20260509141508 | 21 | 119 | 0.0 | 3.2 | 0.00 | 1.04 | 0.00 | 86 | 1011.5 |
| 20260509140104 | 20 | 118 | 0.0 | 1.6 | 0.00 | 1.04 | 0.00 | 90 | 1011.5 |
| 20260509134626 | 18 | 118 | 0.0 | 3.2 | 0.00 | 1.04 | 0.00 | 93 | 1011.4 |
| 20260509133055 | 18 | 118 | 0.0 | 0.0 | 0.00 | 1.04 | 0.00 | 95 | 1011.3 |
| 20260509131551 | 16 | 116 | 0.0 | 0.0 | 0.00 | 1.04 | 0.00 | 95 | 1011.1 |
| 20260509130043 | 16 | 360 | 0.0 | 0.0 | 0.00 | 1.04 | 0.00 | 95 | 1010.8 |
| 20260509124538 | 15 | 360 | 0.0 | 0.0 | 0.00 | 1.04 | 0.00 | 95 | 1010.7 |
| 20260509123036 | 13 | 113 | 0.0 | 0.0 | 0.00 | 1.04 | 0.00 | 95 | 1010.5 |
| 20260509121532 | 13 | 113 | 0.0 | 0.0 | 0.00 | 1.04 | 0.00 | 95 | 1010.5 |
| 20260509120035 | 13 | 113 | 0.0 | 0.0 | 0.00 | 1.04 | 0.00 | 94 | 1010.3 |
| 20260509114531 | 13 | 111 | 0.0 | 0.0 | 0.00 | 1.04 | 0.00 | 94 | 1010.2 |
| 20260509113025 | 13 | 111 | 0.0 | 0.0 | 0.00 | 1.04 | 0.00 | 94 | 1009.9 |
| 20260509111525 | 13 | 111 | 0.0 | 0.0 | 0.00 | 1.04 | 0.00 | 94 | 1009.8 |
| 20260509110024 | 13 | 111 | 0.0 | 0.0 | 0.00 | 1.04 | 0.00 | 94 | 1009.8 |
| 20260509104523 | 13 | 111 | 0.0 | 0.0 | 0.00 | 1.04 | 0.00 | 94 | 1009.6 |